Tracking 28081 objects as of 27-Sep-2023
HD Live streaming from Space Station
objects crossing your sky now

SL-16 DEB

Track SL-16 DEB now!
10-day predictions


NORAD ID: 24284
Int'l Code: 1995-058G
Perigee: 825.4 km
Apogee: 844.3 km
Inclination: 70.9 °
Period: 101.5 minutes
Semi major axis: 7205 km
RCS: 0.041 m2 (small)
Launch date: October 31, 1995
Source: Commonwealth of Independent States (former USSR) (CIS)
Launch site: TYURATAM MISSILE AND SPACE COMPLEX (TTMTR)

Note: This is SATELLITE DEBRIS
Your satellite tracking list
Your tracking list is empty




NASA's NSSDC Master Catalog

Two Line Element Set (TLE):
1 24284U 95058G   23269.67945634  .00000449  00000-0  23711-3 0  9997
2 24284  70.8657   1.5853 0013127 204.3455 155.7050 14.19312075442561
Source of the keplerian elements: AFSPC